EZY9012 EGKK-EGGP

Flight info

Callsign EZY9012
Flight time 0h 39m
Altitude 24000
Route LAM N57 WELIN T420 ELVOS
Aircraft A320/M-SDE3FGHIRWY/LB1

Departure

Time 2026-04-17 08:59
Airport London Gatwick Airport (EGKK)

Arrival

Time 2026-04-17 09:38
Airport Liverpool John Lennon Airport (EGGP)
Time Latitude Longitude Altitude Speed Heading
2026-04-17 08:36 51.15584 -0.17681 213 ft 0 kts 348°
2026-04-17 08:48 51.15583 -0.17681 204 ft 1 kts 348°
2026-04-17 08:48 51.15567 -0.17676 214 ft 3 kts 352°
2026-04-17 08:48 51.15547 -0.17673 215 ft 3 kts
2026-04-17 08:49 51.15528 -0.17677 215 ft 3 kts 24°
2026-04-17 08:49 51.15514 -0.17691 210 ft 2 kts 69°
2026-04-17 08:49 51.15512 -0.17699 210 ft 0 kts 78°
2026-04-17 08:52 51.15513 -0.17698 210 ft 2 kts 78°
2026-04-17 08:52 51.15517 -0.17665 205 ft 3 kts 78°
2026-04-17 08:52 51.15528 -0.17580 207 ft 12 kts 78°
2026-04-17 08:53 51.15541 -0.17467 204 ft 8 kts 94°
2026-04-17 08:53 51.15498 -0.17420 211 ft 9 kts 169°
2026-04-17 08:53 51.15424 -0.17396 210 ft 13 kts 167°
2026-04-17 08:53 51.15327 -0.17362 204 ft 16 kts 167°
2026-04-17 08:54 51.15242 -0.17302 214 ft 14 kts 122°
2026-04-17 08:54 51.15255 -0.17164 204 ft 12 kts 77°
2026-04-17 08:54 51.15272 -0.17042 205 ft 11 kts 77°
2026-04-17 08:54 51.15287 -0.16934 204 ft 9 kts 77°
2026-04-17 08:55 51.15286 -0.16841 212 ft 8 kts 123°
2026-04-17 08:55 51.15231 -0.16809 211 ft 11 kts 168°
2026-04-17 08:55 51.15143 -0.16792 212 ft 13 kts 199°
2026-04-17 08:55 51.15106 -0.16916 208 ft 9 kts 258°
2026-04-17 08:56 51.15104 -0.16929 203 ft 0 kts 258°
2026-04-17 08:58 51.15063 -0.17221 204 ft 66 kts 257°
2026-04-17 08:58 51.14917 -0.18289 204 ft 129 kts 257°
2026-04-17 08:58 51.14696 -0.19925 403 ft 160 kts 254°
2026-04-17 08:59 51.14482 -0.21633 1230 ft 157 kts 256°
2026-04-17 08:59 51.14247 -0.23454 1678 ft 179 kts 255°
2026-04-17 08:59 51.13964 -0.25523 2112 ft 204 kts 255°
2026-04-17 08:59 51.13739 -0.27796 2918 ft 213 kts 269°
2026-04-17 09:00 51.14151 -0.30109 3679 ft 226 kts 297°
2026-04-17 09:00 51.15320 -0.31826 3930 ft 237 kts 331°
2026-04-17 09:00 51.16954 -0.32211 4014 ft 245 kts
2026-04-17 09:00 51.18481 -0.30976 4568 ft 254 kts 45°
2026-04-17 09:01 51.19359 -0.28567 5489 ft 254 kts 77°
2026-04-17 09:01 51.19730 -0.25812 6370 ft 260 kts 78°
2026-04-17 09:01 51.20513 -0.23099 6821 ft 282 kts 49°
2026-04-17 09:01 51.22104 -0.21247 7530 ft 288 kts 18°
2026-04-17 09:02 51.24068 -0.20863 8397 ft 287 kts 347°
2026-04-17 09:02 51.25917 -0.21961 9290 ft 284 kts 327°
2026-04-17 09:02 51.27721 -0.23346 10199 ft 291 kts 333°
2026-04-17 09:02 51.29664 -0.24570 10629 ft 313 kts 335°
2026-04-17 09:03 51.31792 -0.25806 10934 ft 337 kts 336°
2026-04-17 09:03 51.34108 -0.27137 11234 ft 360 kts 336°
2026-04-17 09:03 51.36490 -0.28532 11802 ft 369 kts 336°
2026-04-17 09:03 51.38920 -0.29996 12519 ft 375 kts 335°
2026-04-17 09:04 51.41364 -0.31509 13249 ft 380 kts 334°
2026-04-17 09:04 51.43840 -0.33071 13968 ft 385 kts 334°
2026-04-17 09:04 51.46338 -0.34661 14618 ft 389 kts 334°
2026-04-17 09:04 51.48866 -0.36276 15287 ft 393 kts 334°
2026-04-17 09:05 51.51421 -0.37908 15897 ft 397 kts 334°
2026-04-17 09:05 51.53997 -0.39551 16524 ft 400 kts 334°
2026-04-17 09:05 51.56599 -0.41208 17140 ft 404 kts 334°
2026-04-17 09:05 51.59221 -0.42880 17747 ft 408 kts 334°
2026-04-17 09:06 51.61870 -0.44565 18334 ft 412 kts 334°
2026-04-17 09:06 51.64551 -0.46267 18862 ft 415 kts 334°
2026-04-17 09:06 51.67245 -0.47982 19386 ft 418 kts 334°
2026-04-17 09:06 51.69957 -0.49713 19859 ft 421 kts 333°
2026-04-17 09:07 51.72689 -0.51461 20378 ft 424 kts 333°
2026-04-17 09:07 51.75436 -0.53223 20933 ft 426 kts 333°
2026-04-17 09:07 51.78204 -0.54997 21445 ft 429 kts 333°
2026-04-17 09:07 51.80991 -0.56788 21950 ft 432 kts 333°
2026-04-17 09:08 51.83792 -0.58592 22427 ft 435 kts 333°
2026-04-17 09:08 51.86611 -0.60411 22897 ft 438 kts 332°
2026-04-17 09:08 51.89452 -0.62246 23361 ft 441 kts 332°
2026-04-17 09:08 51.92311 -0.64099 23797 ft 444 kts 332°
2026-04-17 09:09 51.95185 -0.65965 24077 ft 445 kts 332°
2026-04-17 09:09 51.98067 -0.67833 24147 ft 451 kts 332°
2026-04-17 09:09 52.01016 -0.69752 24151 ft 461 kts 332°
2026-04-17 09:09 52.04014 -0.71702 24141 ft 465 kts 332°
2026-04-17 09:10 52.10037 -0.75612 24136 ft 467 kts 332°
2026-04-17 09:10 52.13050 -0.77575 24137 ft 467 kts 332°
2026-04-17 09:10 52.16066 -0.79541 24136 ft 467 kts 332°
2026-04-17 09:11 52.19122 -0.81540 24132 ft 467 kts 332°
2026-04-17 09:11 52.22131 -0.83514 24131 ft 467 kts 332°
2026-04-17 09:11 52.25090 -0.85656 24134 ft 462 kts 326°
2026-04-17 09:11 52.27841 -0.88297 24129 ft 459 kts 322°
2026-04-17 09:12 52.30574 -0.91017 24137 ft 459 kts 322°
2026-04-17 09:12 52.33307 -0.93738 24131 ft 459 kts 322°
2026-04-17 09:12 52.36032 -0.96459 24130 ft 459 kts 322°
2026-04-17 09:12 52.38757 -0.99181 24143 ft 460 kts 322°
2026-04-17 09:13 52.41488 -1.01913 24140 ft 460 kts 322°
2026-04-17 09:13 52.44223 -1.04655 24108 ft 461 kts 322°
2026-04-17 09:13 52.46955 -1.07398 24093 ft 461 kts 322°
2026-04-17 09:13 52.49694 -1.10152 24080 ft 462 kts 322°
2026-04-17 09:14 52.52434 -1.12910 24094 ft 462 kts 322°
2026-04-17 09:14 52.55173 -1.15669 24083 ft 462 kts 322°
2026-04-17 09:14 52.57921 -1.18438 24074 ft 463 kts 322°
2026-04-17 09:14 52.60642 -1.21176 24058 ft 452 kts 322°
2026-04-17 09:15 52.63303 -1.23839 23371 ft 446 kts 322°
2026-04-17 09:15 52.65978 -1.26543 21910 ft 456 kts 322°
2026-04-17 09:15 52.68698 -1.29321 20635 ft 463 kts 322°
2026-04-17 09:15 52.71438 -1.32127 19635 ft 463 kts 323°
2026-04-17 09:16 52.74144 -1.34885 19322 ft 453 kts 323°
2026-04-17 09:16 52.76812 -1.37595 19144 ft 449 kts 323°
2026-04-17 09:16 52.79465 -1.40296 18784 ft 447 kts 323°
2026-04-17 09:16 52.82102 -1.42991 18410 ft 445 kts 323°
2026-04-17 09:17 52.83877 -1.44811 18136 ft 444 kts 323°
2026-04-17 09:17 52.86484 -1.47515 17784 ft 440 kts 321°
2026-04-17 09:17 52.88748 -1.50811 17502 ft 427 kts 306°
2026-04-17 09:17 52.90357 -1.54847 17383 ft 415 kts 290°
2026-04-17 09:18 52.91333 -1.59293 17238 ft 409 kts 282°
2026-04-17 09:18 52.92175 -1.63789 17117 ft 409 kts 282°
2026-04-17 09:18 52.93012 -1.68288 16984 ft 408 kts 282°
2026-04-17 09:18 52.93847 -1.72785 16850 ft 407 kts 282°
2026-04-17 09:19 52.94677 -1.77260 16725 ft 407 kts 282°
2026-04-17 09:19 52.95507 -1.81747 16596 ft 406 kts 282°
2026-04-17 09:19 52.96329 -1.86208 16458 ft 405 kts 282°
2026-04-17 09:19 52.97149 -1.90677 16328 ft 404 kts 282°
2026-04-17 09:20 52.97966 -1.95131 16199 ft 403 kts 282°
2026-04-17 09:20 52.98783 -1.99580 16071 ft 403 kts 282°
2026-04-17 09:20 52.99599 -2.04023 15980 ft 403 kts 282°
2026-04-17 09:20 53.00411 -2.08466 15854 ft 402 kts 282°
2026-04-17 09:21 53.01219 -2.12916 15723 ft 402 kts 282°
2026-04-17 09:21 53.02022 -2.17346 15599 ft 401 kts 282°
2026-04-17 09:21 53.02825 -2.21779 15472 ft 400 kts 282°
2026-04-17 09:21 53.03625 -2.26201 15281 ft 399 kts 282°
2026-04-17 09:22 53.04418 -2.30591 14652 ft 394 kts 282°
2026-04-17 09:22 53.05200 -2.34939 13994 ft 390 kts 282°
2026-04-17 09:22 53.05970 -2.39230 13313 ft 385 kts 282°
2026-04-17 09:22 53.06730 -2.43467 12696 ft 380 kts 282°
2026-04-17 09:23 53.07480 -2.47666 12059 ft 377 kts 282°
2026-04-17 09:23 53.08221 -2.51827 11441 ft 372 kts 282°
2026-04-17 09:23 53.08938 -2.55869 11258 ft 356 kts 281°
2026-04-17 09:23 53.09632 -2.59766 11118 ft 338 kts 281°
2026-04-17 09:24 53.10273 -2.63373 11005 ft 322 kts 281°
2026-04-17 09:24 53.10898 -2.66900 10854 ft 307 kts 281°
2026-04-17 09:24 53.11488 -2.70239 10741 ft 294 kts 280°
2026-04-17 09:24 53.12052 -2.73449 10613 ft 283 kts 280°
2026-04-17 09:25 53.12593 -2.76549 10381 ft 276 kts 280°
2026-04-17 09:25 53.13122 -2.79599 10319 ft 274 kts 279°
2026-04-17 09:25 53.13647 -2.82643 10250 ft 274 kts 279°
2026-04-17 09:25 53.14173 -2.85688 10138 ft 273 kts 279°
2026-04-17 09:26 53.14701 -2.88729 10034 ft 273 kts 280°
2026-04-17 09:26 53.15232 -2.91782 9564 ft 279 kts 280°
2026-04-17 09:26 53.15769 -2.94868 9243 ft 275 kts 280°
2026-04-17 09:26 53.16298 -2.97907 8952 ft 267 kts 280°
2026-04-17 09:27 53.16798 -3.00763 8815 ft 247 kts 279°
2026-04-17 09:27 53.17271 -3.03482 8308 ft 243 kts 279°
2026-04-17 09:27 53.17730 -3.06148 7920 ft 238 kts 279°
2026-04-17 09:27 53.18183 -3.08785 7614 ft 235 kts 277°
2026-04-17 09:28 53.18631 -3.11390 7290 ft 232 kts 277°
2026-04-17 09:28 53.19075 -3.13960 7046 ft 226 kts 277°
2026-04-17 09:28 53.19353 -3.16409 7000 ft 203 kts 260°
2026-04-17 09:28 53.19010 -3.18613 7004 ft 194 kts 237°
2026-04-17 09:29 53.18139 -3.20276 7003 ft 191 kts 215°
2026-04-17 09:29 53.16907 -3.21125 7003 ft 196 kts 193°
2026-04-17 09:29 53.15522 -3.20937 7002 ft 208 kts 168°
2026-04-17 09:29 53.14271 -3.19578 7004 ft 227 kts 140°
2026-04-17 09:30 53.13549 -3.17097 7004 ft 247 kts 110°
2026-04-17 09:30 53.13243 -3.14267 7007 ft 249 kts 108°
2026-04-17 09:30 53.12949 -3.11415 7008 ft 250 kts 110°
2026-04-17 09:30 53.12654 -3.08569 7008 ft 249 kts 108°
2026-04-17 09:31 53.12402 -3.05709 7007 ft 255 kts 98°
2026-04-17 09:31 53.12902 -3.02854 6999 ft 264 kts 55°
2026-04-17 09:31 53.14315 -3.00999 7007 ft 261 kts 15°
2026-04-17 09:31 53.16044 -3.00818 6733 ft 243 kts 336°
2026-04-17 09:32 53.17412 -3.02217 6365 ft 225 kts 302°
2026-04-17 09:32 53.18114 -3.04407 6018 ft 209 kts 276°
2026-04-17 09:32 53.18404 -3.06779 5698 ft 209 kts 271°
2026-04-17 09:32 53.18651 -3.09137 5456 ft 205 kts 271°
2026-04-17 09:33 53.18891 -3.11467 5167 ft 204 kts 272°
2026-04-17 09:33 53.19520 -3.13642 5005 ft 222 kts 305°
2026-04-17 09:33 53.20942 -3.14890 5008 ft 245 kts 340°
2026-04-17 09:33 53.22701 -3.15154 5015 ft 261 kts 354°
2026-04-17 09:34 53.24529 -3.14985 5005 ft 264 kts
2026-04-17 09:34 53.26344 -3.14671 4999 ft 257 kts
2026-04-17 09:34 53.28085 -3.14330 4825 ft 251 kts
2026-04-17 09:34 53.29828 -3.13725 4365 ft 262 kts 18°
2026-04-17 09:35 53.31319 -3.12024 3942 ft 259 kts 52°
2026-04-17 09:35 53.32141 -3.09458 3559 ft 244 kts 81°
2026-04-17 09:35 53.32347 -3.06735 3110 ft 233 kts 93°
2026-04-17 09:35 53.32471 -3.04054 2583 ft 225 kts 93°
2026-04-17 09:36 53.32592 -3.01518 2219 ft 211 kts 94°
2026-04-17 09:36 53.32705 -2.99171 1863 ft 195 kts 94°
2026-04-17 09:36 53.32807 -2.97042 1730 ft 175 kts 95°
2026-04-17 09:36 53.32897 -2.95058 1352 ft 163 kts 95°
2026-04-17 09:37 53.32967 -2.93174 959 ft 162 kts 93°
2026-04-17 09:37 53.33074 -2.91386 769 ft 147 kts 91°
2026-04-17 09:37 53.33148 -2.89737 491 ft 139 kts 90°
2026-04-17 09:37 53.33217 -2.88134 301 ft 137 kts 90°
2026-04-17 09:38 53.33289 -2.86549 111 ft 136 kts 91°
2026-04-17 09:38 53.33354 -2.85117 81 ft 103 kts 84°
2026-04-17 09:38 53.33402 -2.84209 72 ft 54 kts 85°
2026-04-17 09:38 53.33418 -2.83817 80 ft 23 kts 86°
2026-04-17 09:39 53.33432 -2.83661 75 ft 10 kts 71°
2026-04-17 09:39 53.33490 -2.83627 70 ft 9 kts 356°
2026-04-17 09:39 53.33538 -2.83632 85 ft 8 kts 355°
2026-04-17 09:39 53.33585 -2.83673 84 ft 8 kts 295°
2026-04-17 09:40 53.33582 -2.83819 73 ft 12 kts 266°
2026-04-17 09:40 53.33576 -2.83952 75 ft 11 kts 265°
2026-04-17 09:40 53.33571 -2.84066 70 ft 8 kts 265°
2026-04-17 09:40 53.33566 -2.84161 75 ft 11 kts 268°
2026-04-17 09:41 53.33556 -2.84379 72 ft 25 kts 265°
2026-04-17 09:41 53.33543 -2.84663 80 ft 21 kts 266°
2026-04-17 09:41 53.33535 -2.84845 86 ft 15 kts 266°
2026-04-17 09:41 53.33527 -2.85020 85 ft 16 kts 265°
2026-04-17 09:42 53.33519 -2.85193 87 ft 15 kts 265°
2026-04-17 09:42 53.33512 -2.85347 84 ft 11 kts 265°
2026-04-17 09:42 53.33507 -2.85441 84 ft 7 kts 265°
2026-04-17 09:42 53.33528 -2.85503 89 ft 10 kts 340°
2026-04-17 09:43 53.33593 -2.85512 88 ft 8 kts 359°
2026-04-17 09:43 53.33645 -2.85512 86 ft 4 kts 355°
2026-04-17 09:43 53.33658 -2.85513 89 ft 1 kts 357°
2026-04-17 09:43 53.33662 -2.85513 89 ft 1 kts 356°
2026-04-17 09:44 53.33667 -2.85514 89 ft 0 kts 356°